Location: Ammerl�gen
(47.2167°N, 9.6000°E)
Time: 19:07:25
(UTC+00:00)

DMSP 5D-2 F13 DEB - Pass Details

Date: 31 October 2021
Orbit: 758 x 780 km, 98.7° (Epoch: 03 December)

Event Time Altitude Azimuth Distance (km) Brightness Sun altitude
Exits shadow 20:18:49 13° 316° (NW) 2,082 ? -42.4°
Drops below altitude 10° 20:19:32 10° 322° (NW) 2,298 ? -42.5°
Sets 20:22:13 0° 335° (NNW) 3,228 ? -42.9°
